Regional Weather Roundup
Issued by NWS

Home | Current Version | Previous Version | Graphics & Text | Print | Product List | Glossary On
Versions: 1 2 3 4 5 6 7 8 9 10 11 12 13 14 15 16 17 18 19 20 21 22 23 24 25 26 27 28 29 30 31 32 33 34 35 36 37 38 39 40 41 42 43 44 45 46 47 48 49 50
000
ASUS45 KBOU 272307
RWRCO

WEATHER ROUNDUP FOR COLORADO
NATIONAL WEATHER SERVICE DENVER/BOULDER CO
500 PM MDT FRI MAR 27 2015

NOTE: "FAIR" INDICATES FEW OR NO CLOUDS BELOW 12000 FEET WITH NO
SIGNIFICANT WEATHER AND/OR OBSTRUCTIONS TO VISIBILITY.

COZ001>005-013-030-031-280000-
...NORTHWEST COLORADO...

CITY           SKY/WX    TMP DP  RH WIND       PRES   REMARKS
CRAIG          SUNNY     66  30  26 W9G18     30.19F
HAYDEN         MOSUNNY   63  27  25 NW9G17    30.20F
MEEKER         SUNNY     66  26  22 SW13      30.21F
MOUNT WERNER   NOT AVBL
STEAMBOAT SPGS SUNNY     58  30  34 S6        30.22F
WALDEN         MOSUNNY   54  27  35 W16G23    30.25F
$$

COZ006>008-011-280000-
...WEST CENTRAL VALLEYS...

CITY           SKY/WX    TMP DP  RH WIND       PRES   REMARKS
GRAND JUNCTION SUNNY     70  25  18 VRB3      30.14F
MONTROSE       SUNNY     69  20  15 N10       30.20F
EAGLE          MOSUNNY   66  23  19 NW6       30.21S
RIFLE          SUNNY     70  23  17 VRB5      30.15F
DELTA          SUNNY     75  21  13 W17G23    30.15F
NUCLA          SUNNY     70  18  13 NW7       30.23S
$$

COZ017>023-064>068-280000-
...SOUTHWEST COLORADO...

CITY           SKY/WX    TMP DP  RH WIND       PRES   REMARKS
DURANGO        SUNNY     69  23  17 W23G29    30.16F
CORTEZ         SUNNY     69  22  16 W17       30.20F
PAGOSA SPRINGS SUNNY     65  15  14 SW13G24   30.22F
TELLURIDE      PTSUNNY   58  20  23 W8G17     30.34F
WOLF CREEK PAS MOSUNNY   41  12  30 W17G24    30.47S
$$

COZ009-010-012-014-032>034-037-058>063-280000-
...CENTRAL COLORADO...

CITY           SKY/WX    TMP DP  RH WIND       PRES   REMARKS
ASPEN          MOSUNNY   60  23  24 N13G23    30.24F
BUENA VISTA    PTSUNNY   63  14  14 NW15G21   30.22S
COPPER MTN     MOSUNNY   37  21  52 W28G33    30.42S
BERTHOUD PASS  PTSUNNY   30  23  74 MISG      30.39S
COTTONWOOD PAS MOSUNNY   55  10  16 N7G17     30.33R
GUNNISON       SUNNY     61  19  20 NW12      30.28S
KREMMLING      MOSUNNY   61  21  21 NW12      30.26S
LEADVILLE      PTSUNNY   46  21  37 W16G23    30.32S
SALIDA         PTSUNNY   67  12  11 N18G24    30.26F
SUNLIGHT       SUNNY     46  23  39 CALM      30.44S
WILKERSON PASS PTSUNNY   45  18  33 N7        30.40S
$$

COZ069>075-280000-
...SAN LUIS VALLEY/SANGRE DE CRISTO MOUNTAINS...

CITY           SKY/WX    TMP DP  RH WIND       PRES   REMARKS
ALAMOSA        MOSUNNY   69  12  11 NW13G26   30.18S
LA VETA PASS   SUNNY     54  18  24 SW7       30.31S
SAGUACHE       MOSUNNY   63  19  19 NW26G35   30.22S
$$

COZ035-036-038>040-280000-
...NORTHERN COLORADO FRONT RANGE...

CITY           SKY/WX    TMP DP  RH WIND       PRES   REMARKS
DENVER INTL AP PTSUNNY   67  30  25 NW8       30.09S
DMNS CITY PARK   N/A     67  29  23 W5G10     30.08S
AURORA         MOSUNNY   67  29  23 N7        30.10F
FRONT RANGE AP PTSUNNY   66  32  28 MISG      30.10F
ERIE MUNI ARPT PTSUNNY   68  28  22 CALM      30.07S
BOULDER MUN AP PTSUNNY   70  30  23 NE5       30.07S
CENTENNIAL     MOSUNNY   66  29  24 NW10G17   30.11R
BROOMFIELD     PTSUNNY   66  30  26 E6        30.10S
FORT COLLINS   MOSUNNY   68  30  24 NW9       30.06S
LONGMONT       PTSUNNY   71  30  21 S7        30.07F
$$

COZ041-046-047-076>085-087-088-280000-
...PIKES PEAK/PALMER DIVIDE AND SOUTHERN FOOTHILLS...

CITY           SKY/WX    TMP DP  RH WIND       PRES   REMARKS
COLO. SPRINGS  PTSUNNY   65  26  23 S10G17    30.13R
A. F. ACADEMY  MOSUNNY   64  25  22 N15G24    30.14R
ELLICOTT       MOSUNNY  N/A N/A N/A N6        30.12R
FALCON         MOSUNNY   64  24  22 NW13G22   30.17R
FORT CARSON    MOSUNNY   63  29  27 SE3       30.11R
LIMON          SUNNY     67  27  22 NW17G29   30.09S
MONUMENT HILL  SUNNY     61  27  27 N14G23    30.16S
TRINIDAD       SUNNY     69  26  20 SE8       30.07F
$$

COZ042>045-048>051-090-091-280000-
...NORTHEAST COLORADO...

CITY           SKY/WX    TMP DP  RH WIND       PRES   REMARKS
GREELEY ARPT   MOSUNNY   73  27  17 NW26G32   30.01F
AKRON          MOSUNNY   69  29  22 N24G32    30.02F
BURLINGTON     PTSUNNY   68  32  26 N9        30.02F
WRAY           PTSUNNY   74  32  21 N14G23    29.98F
STERLING       MOSUNNY   72  32  23 N21G26    29.99S
HOLYOKE        MOSUNNY   73  34  23 NW18G26   29.98S
FORT MORGAN    MOSUNNY  N/A N/A N/A NW21G29   30.03S
$$

COZ086-089-092>099-280000-
...SOUTHEAST COLORADO...

CITY           SKY/WX    TMP DP  RH WIND       PRES   REMARKS
PUEBLO         MOSUNNY   71  29  21 SE14      30.05S
LA JUNTA       SUNNY     71  29  21 VRB5      30.05F
LAMAR          NOT AVBL
SPRINGFIELD      N/A     68  30  24 NE12      30.07F
$$


USA.gov is the U.S. government's official web portal to all federal, state and local government web resources and services.